Torna al catalogo

STARLINK-37816

AttivoComunicazioniSSO
NORAD 69478·PAYLOAD·🇺🇸 United States

Lanciato Jun 11, 2026 da Vandenberg Space Force Base

Loading…

Prossimi Passaggi (prossime 24 ore)

TLE

AggiornatoSource: CelesTrak SupGP

Epoca: Sep 14, 2026, 22:29 UTC

1 69478C 26131A   26257.93729167  .00046572  00000+0  14459-2 0  2578
2 69478  97.2831 278.9661 0001202  93.0855 151.0321 15.33412272    14

Traccia STARLINK-37816 in tempo reale con AllMySat

Download on the App Store